Location: Newark
(40.7830°N, 8.7430°E)
Time: 16:34:34
(UTC+00:00)

ISS - Pass Details

Date: 25 September 2019
Orbit: 411 x 421 km, 51.6° (Epoch: 14 October)

Event Time Altitude Azimuth Distance (km) Brightness Sun altitude
Rises 18:33:25 0° 278° (W) 2,340 2.0 -15.0°
Reaches altitude 10° 18:35:59 10° 299° (WNW) 1,479 0.2 -15.5°
Maximum altitude 18:38:19 18° 344° (NNW) 1,109 -1.3 -16.0°
Drops below altitude 10° 18:40:39 10° 28° (NNE) 1,482 -1.1 -16.4°
Enters shadow 18:40:50 - 31° (NNE) 1,537 -1.1 -16.4°
